CAPE
647 891 1400 1758 1755 1702 1732 1671 1462 1230 1270 1370 1511 1616 1435 1273 1208 1154 1374 1716 2013 1898 1921 1981 1818 2023 2074 1318 2035 1758 1936 1730 1534 1149 1165 612 652 1731 1597 1317 1466 1413 803
771 1063 1301 1707 1603 1254 1507 1727 1682 1538 1275 1262 1264 1169 938 1067 1651 1753 1997 2030 1951 2030 2067 2009 1889 2092 1800 1781 1680 1568 1470 1412 1352 780 326 382 1425 1676 1496 1500 1522 1484 1461
804 1291 1317 1614 1515 1157 1249 1449 1507 1516 1554 1562 1577 1592 1534 1756 2037 1983 1919 1818 1870 1902 1903 1758 1940 1601 1500 1678 1790 1679 1722 1612 1432 952 601 1067 1761 1511 1532 1572 1664 1581 1478
857 1236 1294 1407 1333 1092 1098 1277 1368 1441 1574 1725 1845 1807 1770 1950 1796 1623 1405 1437 1763 1735 1766 1743 2004 1525 1327 1417 1696 1655 1753 1709 1688 1071 68 1133 1635 1673 1748 1805 1793 1636 1683
936 1246 1383 1222 1028 964 1117 1247 1628 1543 1498 1507 1667 1893 1780 1706 1359 1073 1792 1786 1614 1701 1799 1725 1743 1658 1627 1292 1430 1502 1755 1832 1248 333 108 1106 1507 1469 1579 1645 1563 1623 1604
1145 1403 1556 1207 857 964 1069 1345 2034 1937 1268 691 1189 2076 1881 1628 1750 903 1179 1354 1623 1552 1532 1539 1466 1381 1517 1302 1389 1514 1679 1838 823 257 132 1433 1355 1551 1649 1710 1661 1625 1667
1157 1322 1383 1270 910 732 896 1255 1941 1880 2087 934 1021 1623 1681 1614 1615 1098 803 1028 937 1060 1336 1237 1186 1144 1066 1053 978 976 1346 1367 752 349 567 1186 1560 1572 1631 1683 1721 1564 983
875 1409 1172 1281 906 750 878 1023 1712 1728 1930 1606 986 1163 2077 1766 1957 1293 500 503 978 751 1254 1034 942 1002 937 1040 712 749 1045 943 786 936 666 791 1408 1702 1703 1803 1719 1037 1504
774 1396 1174 1132 903 1449 900 936 1548 1812 1298 1993 1444 1060 1985 1810 1759 1632 1063 217 240 848 888 920 985 943 691 798 832 994 996 933 347 742 772 1054 1322 1551 1487 1740 1762 1517 1682
764 1329 1226 1019 1073 1151 1426 967 1677 1641 1540 1934 2090 1450 1207 1541 1276 1056 1089 1016 735 553 751 631 498 580 512 624 578 629 952 1174 281 461 676 1010 1101 1540 1297 1715 1668 1653 1607
711 887 1373 889 897 969 1234 925 1431 1885 1738 1700 1943 1671 1521 987 346 370 691 949 832 939 942 850 584 350 204 390 468 718 704 305 244 301 357 865 972 1545 1626 1653 1479 1467 1662
535 820 985 968 718 838 1124 1006 999 1463 1789 1504 1429 1648 855 333 78 14 68 819 755 685 709 716 671 636 511 119 154 376 268 189 97 129 173 457 645 1536 1645 1725 1593 1497 1765
560 855 1002 947 760 724 862 968 1030 1007 1602 1155 1383 1287 593 125 119 48 1 228 512 629 255 354 364 239 185 161 74 134 81 74 64 79 80 127 419 1389 1366 1444 1414 1496 1656
705 694 954 945 828 690 807 763 778 895 1359 916 1237 889 335 58 8 0 0 12 141 157 74 122 102 57 90 113 158 139 48 15 40 53 25 35 149 729 814 730 1479 1258 1290
567 684 813 832 771 734 672 594 720 980 949 711 796 692 410 6 0 0 0 0 9 59 19 84 83 46 76 74 36 106 135 5 33 45 51 28 178 216 804 198 752 957 1296
377 435 728 804 814 667 589 614 693 754 674 622 754 743 297 162 1 14 2 0 0 0 4 4 5 7 11 57 47 87 166 107 110 39 52 10 85 215 84 160 502 1075 1175
227 311 448 677 718 549 512 525 574 485 358 296 661 641 291 298 229 123 49 14 0 3 24 20 65 94 44 74 134 169 159 112 96 89 47 36 108 97 104 261 47 1030 1177
333 219 193 404 420 417 325 348 296 202 152 227 357 434 308 354 296 221 112 85 66 92 115 129 116 57 67 101 115 143 147 95 104 60 79 63 85 55 139 112 78 990 1346
416 303 197 141 142 174 174 216 202 194 181 166 216 176 196 272 340 202 140 95 84 73 104 137 106 74 66 66 109 115 146 48 61 104 72 56 17 28 45 197 289 816 1330
447 313 299 261 135 48 95 141 128 105 122 99 97 136 161 248 297 296 217 135 79 44 138 107 103 90 54 51 127 135 124 121 136 215 116 59 0 75 54 60 348 454 1181
288 301 286 307 158 15 23 42 76 126 137 143 115 212 210 224 282 280 166 108 23 96 203 190 125 94 90 71 142 37 73 70 251 190 108 66 7 21 64 121 445 783 1004
146 118 173 265 168 27 15 33 73 132 209 251 180 234 146 171 112 126 109 71 29 237 222 206 156 89 103 136 129 27 40 35 58 273 154 61 0 0 18 75 351 661 658
322 67 25 77 100 54 33 26 36 112 143 136 128 136 124 159 119 102 88 56 85 140 163 176 218 124 111 91 96 55 23 35 120 228 222 143 21 2 3 40 97 331 407
342 132 54 13 20 21 33 53 28 49 89 122 127 95 0 0 5 38 49 134 151 148 172 197 198 223 94 96 99 102 6 5 27 55 168 123 88 46 20 2 22 50 84
77 271 184 41 31 26 37 60 35 37 28 20 6 0 0 0 0 4 66 224 211 182 191 295 214 84 52 157 89 65 119 83 18 49 35 201 147 126 33 0 0 0 11
275 455 369 181 104 43 51 68 49 37 0 7 3 0 3 0 0 1 12 120 229 238 417 369 301 78 24 21 146 108 122 131 59 25 35 135 165 160 183 123 38 4 0
CIN
-24 -4 -1 0 0 0 0 -2 -9 -22 -29 -25 -19 -12 -17 -20 -24 -28 -22 -7 0 0 0 0 0 0 0 -5 0 0 0 0 0 -12 -12 -53 -41 0 0 0 0 0 -6
-57 -1 -2 0 0 -11 0 0 0 -9 -25 -26 -20 -21 -38 -35 -6 -3 0 0 0 0 0 0 0 0 0 0 0 0 0 0 0 -26 -82 -66 0 0 0 0 0 0 0
-57 0 -1 0 0 -8 -6 -1 0 -1 -8 -6 -3 -2 -5 -1 0 0 0 0 0 0 0 0 0 0 0 0 0 0 0 0 0 -11 -49 -9 0 0 0 0 0 0 0
-58 -1 -2 -1 0 -3 -6 -2 0 0 0 0 0 0 0 0 0 0 -5 0 0 0 0 0 0 0 0 0 0 0 0 0 0 -8 -144 -5 0 0 0 0 0 0 0
-32 -2 0 -2 -4 -10 -5 -4 0 0 -1 -4 -2 0 0 -1 -5 -12 0 0 0 0 0 0 0 0 0 0 0 0 0 0 -4 -74 -118 -7 -1 0 0 0 0 0 0
-6 -1 0 -1 -13 -9 -8 0 0 0 -6 -47 -18 0 0 0 0 -25 -5 0 0 0 0 0 0 0 0 0 0 0 0 0 -25 -81 -115 -1 -4 0 0 0 0 0 0
-5 -1 -1 -1 -10 -15 -11 0 0 0 0 -24 -25 -2 0 -1 0 -9 -18 -3 -4 -2 -1 0 0 0 0 0 -1 -6 -1 -3 -26 -64 -39 -4 -1 0 0 0 0 0 -8
-36 -1 -2 -1 -7 -10 -9 -7 0 0 0 -2 -20 -10 0 0 0 -1 -32 -31 0 -6 0 0 0 0 -2 -2 -13 -18 -13 -11 -16 -15 -33 -37 -2 0 0 0 0 -13 -1
-29 -1 -1 -1 -1 0 -6 -11 0 0 -1 0 -3 -9 0 0 0 0 -3 -47 -28 0 0 -1 0 0 -5 -5 -7 -5 -4 -13 -42 -20 -21 -13 -4 0 0 0 0 0 0
-27 -1 -1 -2 -2 -3 0 -5 0 0 0 0 0 0 -9 0 -3 -1 -1 0 -1 -2 0 -4 -12 -8 -11 -6 -10 -13 -6 -3 -65 -32 -24 -9 -5 0 0 0 0 0 0
-13 -16 -2 -8 -7 -6 -4 -2 0 0 0 0 0 0 0 -8 -24 -15 -10 -2 -1 0 0 -2 -5 -26 -31 -23 -8 -8 -12 -43 -53 -52 -32 -9 -7 0 0 0 -4 -3 0
-47 -21 -15 -16 -28 -8 -4 -5 -4 -2 -2 -3 -2 -1 -15 -35 -43 -10 -29 -3 -2 -1 0 -3 -4 -4 -3 -44 -36 -15 -37 -48 -61 -60 -46 -15 -9 0 0 0 0 -1 0
-71 -38 -26 -25 -38 -29 -16 -11 -7 -6 -3 -6 -3 -4 -25 -59 -36 -34 -2 -22 -11 -4 -22 -12 -12 -17 -20 -32 -53 -44 -52 -62 -67 -70 -62 -41 -9 0 -1 -1 -2 -1 0
-48 -69 -36 -33 -34 -42 -36 -34 -23 -20 -5 -18 -5 -12 -40 -71 -86 0 0 -64 -35 -24 -32 -27 -32 -32 -32 -36 -29 -43 -67 -79 -73 -68 -70 -57 -22 -5 -6 -3 -1 -3 -5
-76 -71 -67 -74 -67 -52 -49 -67 -39 -18 -32 -46 -31 -32 -40 -55 0 0 0 -27 -62 -34 -53 -29 -33 -44 -50 -61 -55 -56 -55 -117 -60 -63 -60 -51 -20 -19 -6 -32 -3 -5 -3
-139 -130 -84 -78 -78 -84 -71 -70 -66 -49 -65 -58 -37 -32 -54 -73 -19 -106 -65 0 -21 -38 -74 -53 -21 -58 -69 -68 -74 -67 -56 -61 -50 -62 -68 -70 -32 -16 -38 -18 -21 -4 -3
-190 -156 -139 -118 -82 -107 -101 -86 -77 -89 -104 -114 -61 -45 -54 -54 -56 -65 -79 -105 0 -104 -55 -36 -30 -34 -52 -58 -37 -33 -35 -47 -48 -54 -66 -63 -38 -29 -24 -20 -71 -1 -3
-219 -214 -185 -139 -147 -120 -132 -100 -115 -142 -150 -125 -87 -85 -80 -53 -50 -50 -59 -67 -69 -54 -45 -35 -39 -34 -43 -39 -32 -36 -42 -53 -43 -64 -61 -61 -54 -51 -14 -58 -59 -1 0
-192 -194 -214 -198 -209 -200 -168 -139 -138 -132 -129 -131 -108 -93 -87 -71 -56 -63 -62 -64 -65 -70 -49 -45 -42 -44 -37 -49 -40 -47 -37 -61 -54 -43 -53 -65 -76 -57 -44 -17 -21 -3 0
-179 -198 -200 -188 -198 -216 -167 -139 -149 -148 -132 -129 -129 -89 -97 -102 -74 -68 -61 -69 -85 -81 -40 -42 -41 -51 -48 -39 -36 -42 -42 -30 -35 -32 -43 -58 -2 -43 -54 -50 -6 -6 -1
-234 -234 -235 -210 -203 -258 -202 -173 -149 -143 -125 -135 -132 -77 -98 -87 -79 -76 -73 -82 -121 -61 -28 -34 -36 -34 -42 -46 -28 -42 -58 -51 -19 -42 -42 -42 -99 -104 -82 -45 -9 -2 0
-297 -311 -268 -245 -228 -219 -195 -203 -161 -136 -118 -63 -73 -69 -97 -75 -84 -74 -69 -75 -105 -35 -32 -40 -40 -45 -44 -41 -28 -54 -37 -65 -64 -28 -28 -53 0 0 -120 -87 -15 -6 -9
-302 -382 -351 -318 -278 -245 -245 -216 -172 -105 -76 -83 -38 -53 -62 -55 -78 -76 -87 -112 -90 -62 -62 -53 -41 -36 -29 -60 -49 -36 -39 -43 -34 -33 -30 -36 -98 -25 -31 -130 -89 -26 -21
-329 -384 -446 -423 -378 -333 -281 -207 -162 -121 -89 -77 -69 -70 -17 0 -63 -76 -77 -71 -62 -46 -69 -54 -46 -30 -43 -39 -40 -50 -87 -98 -53 -49 -34 -52 -64 -117 -152 -30 -168 -151 -130
-436 -348 -378 -400 -401 -391 -346 -229 -195 -182 -93 -107 -106 0 0 0 0 -100 -70 -52 -56 -50 -60 -41 -47 -46 -55 -31 -33 -59 -54 -61 -96 -59 -68 -41 -52 -68 -144 0 0 0 -230
-422 -346 -337 -350 -354 -419 -373 -278 -254 -183 -10 -105 -81 -7 -129 0 0 -78 -61 -62 -44 -40 -37 -40 -30 -53 -88 -67 -29 -55 -47 -39 -44 -71 -80 -66 -67 -74 -69 -105 -173 -74 0
Wind_Speed
29 29 29 28 27 28 28 29 28 28 29 29 27 28 28 27 27 26 23 23 22 22 22 23 22 23 24 23 25 26 24 23 24 22 22 22 24 15 14 9 8 4 5
30 29 29 27 26 27 26 27 27 27 28 27 28 27 26 26 26 25 24 23 22 22 23 23 23 24 24 24 23 23 22 22 23 22 22 25 25 21 18 6 3 5 1
29 29 28 26 25 26 26 26 26 27 27 26 26 26 25 25 25 25 24 23 22 23 24 24 24 23 23 23 23 22 22 20 20 20 21 24 18 20 20 14 13 11 8
28 27 27 26 25 25 25 25 25 26 26 25 25 24 24 23 24 24 24 24 24 25 25 24 24 24 23 22 20 18 19 20 20 15 17 14 14 15 14 12 13 11 8
26 25 26 26 26 24 24 25 26 24 24 24 24 23 23 22 22 23 23 24 25 25 24 24 23 23 23 22 20 20 19 20 18 17 11 8 9 13 13 11 12 9 5
25 25 26 26 26 25 24 24 24 23 24 24 23 22 21 21 21 22 22 23 24 23 23 22 22 22 22 22 21 21 18 18 19 18 9 13 13 14 11 11 11 9 4
23 24 25 25 25 24 23 24 24 23 23 22 22 21 20 20 20 21 22 22 22 23 23 22 22 21 21 22 21 22 21 18 16 18 12 14 12 14 12 8 8 6 5
23 22 24 25 24 23 23 23 23 22 23 22 21 20 19 18 19 20 21 22 22 22 22 21 21 20 19 21 21 19 20 19 19 16 10 11 14 13 11 4 5 6 3
21 20 22 23 23 22 22 23 23 21 21 21 20 18 17 17 19 19 19 20 20 20 21 20 20 20 21 21 21 20 20 20 18 18 10 7 13 13 11 11 5 3 3
20 20 19 21 22 21 20 21 21 20 20 20 20 19 18 18 17 18 19 19 19 19 20 20 20 19 20 19 18 18 18 19 19 18 13 5 17 15 14 11 10 5 9
18 19 19 20 21 21 20 19 21 21 19 20 20 20 20 18 18 18 17 18 18 17 18 18 17 16 16 15 17 16 17 16 17 16 16 17 12 14 14 12 11 1 13
20 20 20 20 20 20 20 19 19 20 18 19 20 20 19 18 17 19 20 18 17 16 15 16 16 15 14 15 14 15 15 16 17 16 18 19 19 22 18 14 6 7 15
19 18 19 19 20 20 19 18 18 18 16 17 18 19 17 17 17 16 17 17 15 14 13 12 13 14 12 13 14 14 13 15 16 16 16 16 18 13 14 19 10 11 16
18 19 17 17 19 19 17 17 16 17 13 14 16 18 17 16 16 16 16 17 15 13 12 12 12 13 12 13 11 13 15 13 14 17 16 16 17 13 4 13 25 8 21
18 20 20 17 18 18 17 16 14 15 14 13 13 15 16 16 15 16 16 17 16 13 12 10 11 13 11 14 10 9 13 14 15 16 16 16 17 13 5 1 11 8 25
16 20 19 18 15 15 15 14 14 13 14 12 12 15 15 16 15 15 16 14 13 12 10 9 13 13 13 14 13 13 14 15 18 15 17 17 15 13 11 15 28 30 30
18 16 20 17 15 16 17 14 10 13 9 11 12 14 13 13 13 13 11 13 11 11 10 12 14 15 14 12 14 14 13 14 8 12 14 17 18 18 16 12 35 31 30
16 16 15 17 18 17 15 11 9 9 8 10 11 3 17 17 11 11 10 10 9 8 9 11 11 13 13 13 12 12 13 10 4 3 18 18 18 20 25 31 35 31 30
15 16 14 16 16 18 14 11 13 13 11 12 8 8 19 17 11 11 8 9 6 7 10 10 8 8 10 10 10 11 12 12 7 5 19 20 21 24 28 32 34 31 30
16 17 16 13 13 13 11 9 11 15 10 9 9 12 8 15 17 8 5 8 8 6 6 6 9 7 7 8 8 9 9 12 14 21 24 24 24 26 28 30 30 30 29
14 14 18 13 11 10 12 12 14 18 19 10 13 11 8 15 14 4 1 5 6 4 4 5 4 4 5 6 8 10 11 12 13 25 16 23 25 28 29 29 26 27 28
20 15 17 16 12 13 12 10 5 11 4 8 8 3 6 3 3 9 5 6 5 4 4 5 5 9 5 4 7 10 10 9 15 24 15 23 25 27 29 28 26 26 27
15 17 16 15 12 13 12 9 5 6 10 6 11 4 5 6 16 21 13 10 6 2 4 2 3 3 5 3 4 11 9 8 7 11 23 25 25 26 28 28 27 26 27
12 8 9 12 11 11 11 12 13 13 7 7 8 4 9 19 21 20 21 17 15 12 6 2 7 5 10 6 5 11 16 11 11 6 20 25 27 26 26 24 27 26 24
7 3 5 9 8 8 12 13 10 13 8 12 8 4 16 12 6 24 25 21 19 11 5 7 10 8 5 8 6 13 11 21 14 9 7 14 19 28 27 26 26 26 24
5 3 1 4 8 7 8 12 14 12 8 6 7 7 7 5 3 21 26 22 17 14 7 7 5 22 28 4 1 4 5 13 13 6 13 15 9 19 23 25 26 26 26
Wind_Direction
130 126 122 115 111 109 109 108 106 102 104 104 102 105 108 106 108 110 105 109 118 139 120 116 136 127 101 89 94 92 84 79 81 76 72 72 80 51 53 46 40 40 44
124 126 123 116 111 113 110 110 107 104 105 103 105 104 103 106 106 105 111 111 123 130 120 107 108 108 98 99 85 81 82 81 82 77 76 85 86 69 62 41 37 37 107
123 126 123 116 112 113 110 110 108 107 106 105 106 106 108 109 108 100 106 109 125 129 123 115 109 91 88 88 88 83 84 77 75 72 78 89 64 73 70 54 52 45 41
121 122 121 118 114 112 111 111 110 109 109 108 108 106 107 105 100 95 90 102 113 118 121 119 112 98 95 90 83 71 72 77 76 58 67 62 56 61 55 46 52 48 41
119 119 121 118 118 114 114 113 115 109 109 112 111 106 106 104 97 96 100 99 107 110 116 114 102 104 103 96 89 88 76 77 67 71 45 31 37 58 52 51 52 44 25
117 120 121 120 121 118 116 117 112 110 111 116 116 110 103 105 100 102 114 116 110 110 108 109 99 106 102 99 100 105 81 78 79 76 50 65 60 65 55 56 53 41 15
116 120 120 122 123 120 119 120 120 114 114 110 111 110 107 107 110 108 121 117 118 119 110 103 100 99 100 101 103 119 116 94 80 83 63 73 63 70 62 47 45 28 14
119 118 123 125 123 120 121 124 125 115 121 114 110 109 107 106 112 114 119 124 117 115 112 99 94 95 96 107 107 101 113 103 98 87 56 64 80 74 67 3 27 34 356
120 117 123 126 127 123 120 127 129 118 123 121 111 112 112 110 121 125 119 125 121 110 110 110 111 114 141 139 133 121 123 125 109 108 66 35 81 85 74 71 36 335 335
122 123 122 129 129 129 122 129 129 123 124 130 122 117 122 124 125 125 127 125 125 124 127 126 122 124 140 133 131 133 131 140 129 114 100 11 110 100 92 78 76 45 236
127 131 128 133 134 134 129 128 136 135 124 130 132 133 137 138 147 140 122 125 123 127 132 128 118 116 114 112 129 128 139 123 121 119 126 126 98 105 102 92 89 306 232
139 140 141 138 139 138 138 134 137 138 132 131 135 143 135 137 130 138 140 134 128 129 136 134 130 125 112 120 121 135 121 122 128 116 122 139 136 145 126 113 78 257 232
143 143 144 144 143 143 144 139 138 138 129 131 141 140 131 125 120 115 133 138 138 133 129 133 131 128 110 117 136 132 119 125 136 138 128 139 147 124 117 133 256 249 233
145 147 145 146 148 149 144 144 141 143 131 132 137 143 139 128 126 122 141 151 150 144 139 139 132 135 130 137 113 137 147 139 133 147 154 149 149 133 355 242 158 268 222
143 151 153 150 152 154 152 148 142 145 142 140 136 143 142 139 134 133 133 154 153 142 142 130 137 145 134 149 125 97 149 146 142 149 154 147 148 134 84 357 116 233 217
145 152 153 156 154 154 158 155 152 149 150 142 143 152 150 153 149 150 158 149 145 140 128 123 153 160 158 155 151 152 149 148 156 142 148 152 146 138 126 144 174 197 196
154 150 158 155 155 159 164 162 156 157 150 152 153 156 155 153 151 143 123 141 138 135 134 145 155 164 151 134 148 151 130 137 114 137 145 160 163 156 149 143 188 195 197
152 156 157 159 161 163 164 164 164 162 158 157 156 143 169 175 152 144 141 134 126 110 120 135 131 144 134 130 124 129 132 124 48 58 163 161 160 158 170 174 186 190 192
163 160 163 164 164 166 162 159 162 160 160 159 157 158 181 176 160 154 138 136 73 85 137 135 102 111 131 119 107 117 139 137 346 70 164 164 163 167 183 184 182 181 183
171 172 168 170 168 165 158 156 159 166 166 165 168 164 168 176 180 158 136 144 123 101 80 96 134 77 54 96 79 103 115 147 147 179 185 178 169 171 173 174 174 177 180
176 176 177 176 180 174 170 167 170 179 178 168 173 178 176 175 173 154 113 132 3 92 77 87 65 77 47 33 35 2 134 135 137 200 199 175 171 174 175 174 160 170 177
184 185 184 184 181 182 181 180 186 177 217 195 175 192 172 189 294 312 327 335 344 357 32 10 25 337 18 72 27 23 77 76 156 196 147 175 170 173 180 176 171 172 177
169 176 181 186 193 192 194 194 252 287 291 275 280 281 313 317 292 286 311 323 333 6 344 33 8 13 355 57 15 339 23 81 64 297 188 195 173 173 178 178 177 176 178
168 165 178 179 184 197 198 199 198 197 213 254 266 278 288 306 289 287 290 308 317 325 337 358 331 331 318 336 345 156 298 18 96 34 255 227 192 175 174 173 179 179 178
149 152 180 184 183 193 198 205 211 208 222 288 281 248 288 322 257 281 281 299 309 328 342 327 318 313 312 311 320 303 140 209 129 347 14 281 260 194 183 181 182 184 182
113 83 350 198 184 186 200 201 204 207 230 266 228 242 242 249 247 260 277 293 312 317 324 322 307 283 261 268 291 295 352 296 120 354 301 283 149 248 174 182 185 188 188